Miscellaneous Local Product
Issued by NWS Hastings, NE

Home | Current Version | Previous Version | Graphics & Text | Print | Product List | Glossary On
Versions: 1 2 3 4 5 6 7 8 9 10 11 12 13 14 15 16 17 18 19 20 21 22 23 24 25 26 27 28 29 30 31 32 33 34 35 36 37 38 39 40 41 42 43 44 45 46 47 48 49 50
000
AXUS43 KGID 280602
MISGRI

GID CWA HOURLY WEATHER ROUNDUP
NATIONAL WEATHER SERVICE HASTINGS NE
1200 AM CST SUN DEC 28 2014

NOTE: "FAIR" INDICATES FEW OR NO CLOUDS BELOW 12,000 FEET WITH NO
SIGNIFICANT WEATHER AND/OR OBSTRUCTIONS TO VISIBILITY.

...SOUTH CENTRAL NEBRASKA...

CITY           SKY/WX    TMP DP  RH WIND       PRES   REMARKS
GRAND ISLAND     N/A     16  11  80 SW10      30.17F WCI   4
HASTINGS       CLEAR     17  11  77 W10       30.16F WCI   5
KEARNEY        CLEAR     14  10  85 SW8       30.17S WCI   3
ORD            PTCLDY     8   5  87 CALM      30.12F
YORK           CLEAR     14  10  85 S7        30.18F WCI   4
AURORA         CLEAR     15  11  85 SW9       30.17F WCI   3
LEXINGTON      CLEAR      5   2  87 NW3       30.15F
HOLDREGE       PTCLDY    18  12  77 W9        30.17F WCI   7
HEBRON         CLEAR     20  14  79 W7        30.22S WCI  11

...NEBRASKA PANHANDLE...

CITY           SKY/WX    TMP DP  RH WIND       PRES   REMARKS
CHADRON        PTCLDY     3  -1  83 W9        30.07F WCI -12
ALLIANCE       PTCLDY    -1  -5  82 W10       30.04F WCI -17
SCOTTSBLUFF    PTCLDY     3  -1  83 N3        30.07F
SIDNEY         PTCLDY     4  -4  69 NW9       30.07F WCI -10

...WESTERN AND NORTH CENTRAL NEBRASKA...

CITY           SKY/WX    TMP DP  RH WIND       PRES   REMARKS
VALENTINE      PTCLDY     5   1  83 W6        30.07F WCI  -6
AINSWORTH      PTCLDY    11   5  77 W10       30.07F WCI  -3
ONEILL         CLEAR     10   9  94 SW7       30.10S WCI  -1
BROKEN BOW     CLEAR     20   9  62 W13       30.11F WCI   7
IMPERIAL       PTCLDY     6   0  76 W7        30.13F WCI  -6
NORTH PLATTE   PTCLDY     1  -2  87 NW3       30.14F
MCCOOK         PTCLDY     8   6  92 W5        30.17F WCI   0

...EASTERN NEBRASKA...

CITY           SKY/WX    TMP DP  RH WIND       PRES   REMARKS
NORFOLK        PTCLDY    11   7  84 CALM      30.13F
SO SIOUX CITY  CLEAR      7   3  84 E8        30.18F WCI  -6
TEKAMAH        CLEAR     13   9  84 SE3       30.20F
COLUMBUS       CLEAR     14   9  79 W7        30.17F WCI   4
ALBION         PTCLDY    17  11  78 CALM      30.14F
OMAHA EPPLEY   CLEAR     20  15  81 S5        30.22F WCI  13
OFFUTT AFB     CLEAR     17  13  88 S2        30.20F
MILLARD        CLEAR     18  15  89 CALM      30.21F
LINCOLN        CLEAR     17  12  80 CALM      30.22F
NEBRASKA CITY  CLEAR     17  13  87 SW3       30.21F
BEATRICE       CLEAR     16  11  83 SW5       30.22F WCI   9
FALLS CITY     CLEAR     20  16  84 SW5       30.25F WCI  13

...NORTHERN KANSAS...

CITY           SKY/WX    TMP DP  RH WIND       PRES   REMARKS
GOODLAND       PTCLDY    14   8  77 SW12      30.13F WCI   0
HILL CITY      CLEAR     14   9  80 W6        30.22S WCI   5
NORTON         CLEAR     10   5  79 SW8       30.18F WCI  -1
PHILLIPSBURG   CLEAR     16  12  86 W3        30.22S
BELOIT         CLEAR     16  12  86 CALM      30.23F
HAYS           CLEAR     16   5  62 W7        30.22F WCI   6
RUSSELL        CLEAR     17  14  88 SW8       30.22F WCI   7
CONCORDIA      CLEAR     21  16  81 SW6       30.23F WCI  13
SALINA         CLEAR     20  14  77 SW8       30.28F WCI  10
TOPEKA         CLEAR     24  19  81 W3        30.29S



USA.gov is the U.S. government's official web portal to all federal, state and local government web resources and services.